Find Starlink 4648

NORAD ID: 53602 Int'l Des: 2022-104 Owner: SPXS Country: US Constellation: starlink operational
LEOCIRCULAR

現在のビュー

3D地球を読み込み中...

About Starlink 4648

Starlink 4648 (NORAD 53602) is a starlink constellation satellite (v1.5) launched Aug 28, 2022 by SPXS of US. It operates in LEO, CIRCULAR orbit with a mass of 300.00 kg.

Starlink 4648について

説明を読み込み中...

次回通過

Passes for default location (London). Set your location on the main map for personalized predictions.

高度履歴

Loading altitude history...

軌道要素

1 53602U 22104Q 26175.12199367 .00000845 00000-0 71209-4 0 9994
2 53602 53.1603 121.1304 0001458 86.8928 273.2230 15.08831213211754
Epoch: Jun 24, 2026 • Age: 14 hours

現在のステータス

高度 548.9 km
速度 7.59 km/s
衛星直下点 -28.40°S, 74.27°W
打ち上げ日 Aug 28, 2022
運用期間 3.8 years
タイプ internet

技術仕様

分類 Payload
質量 300.00 kg
乾燥質量 290.00 kg
総質量 300.00 kg
長さ 0.20 m
直径 2.80 m
スパン 9.00 m
形状 Box + pan
製造者 SPXS
バスタイプ Starlink
フェーズステータス In Orbit
所有者/国 SPXS/US

Most Searched